Temperature
19 19 19 19 20 20 20 20 20 20 20 20 19 19 19 19 19 19 19 19 19 19 18 18 18 18 18 18 18 18 18 18 18 18 18 18 18 17 18 18 18 17 17
20 20 19 19 20 20 20 20 20 20 20 20 19 19 19 19 19 19 19 19 19 19 18 18 18 18 18 18 18 18 18 18 18 18 18 18 17 18 18 18 18 17 17
20 20 19 19 19 20 20 20 20 20 19 19 19 19 19 19 19 19 19 19 19 19 19 18 18 18 18 18 18 18 18 18 18 18 18 17 17 18 18 17 17 17 17
20 20 19 19 19 20 20 20 20 19 19 19 19 19 19 19 19 19 19 19 19 19 18 18 18 18 18 18 18 17 17 18 18 18 18 17 17 17 17 17 17 17 17
20 20 20 19 19 20 20 20 19 19 19 19 19 19 19 19 19 19 19 19 19 18 18 18 18 18 18 18 18 18 18 18 18 18 18 17 17 17 17 17 17 17 17
20 20 19 19 19 19 19 19 19 19 19 19 19 19 19 19 18 18 18 18 18 18 18 18 18 18 18 18 18 18 18 18 18 18 18 17 17 17 17 17 17 17 17
20 19 19 19 19 19 19 19 19 19 19 19 19 18 18 18 18 18 18 18 18 18 18 18 18 18 18 18 18 18 18 18 18 18 18 17 17 17 17 17 17 17 17
19 19 19 19 19 19 19 19 19 19 19 19 18 18 18 18 18 18 18 18 18 18 18 18 18 18 18 17 17 18 18 18 18 18 18 17 17 17 17 17 17 17 17
19 19 19 19 19 19 19 19 19 19 19 18 18 18 18 18 18 18 18 18 18 18 18 18 18 18 18 17 17 17 18 18 18 18 18 17 17 17 17 17 17 17 17
19 19 19 19 19 19 19 19 18 18 18 18 18 18 18 18 18 18 18 17 18 18 18 18 18 18 18 17 17 17 17 18 18 18 17 17 17 17 17 17 18 17 17
18 19 19 19 19 19 18 18 18 18 18 18 18 18 18 18 18 17 17 17 17 17 18 17 17 17 17 17 17 17 17 17 18 18 17 17 17 17 17 17 18 17 17
18 18 19 19 18 18 18 18 18 18 18 17 17 17 17 17 17 17 17 17 17 17 17 17 17 17 17 17 17 17 17 17 17 18 17 17 17 17 17 17 17 17 17
19 18 18 18 18 18 18 18 18 18 17 17 17 17 17 17 17 17 17 17 17 17 17 17 17 17 17 17 17 17 17 17 17 17 17 17 17 17 17 17 17 17 17
19 19 18 18 18 18 18 18 17 17 17 17 17 17 17 17 17 17 17 17 17 17 17 17 17 17 17 17 17 17 17 17 17 17 17 17 17 17 17 17 17 17 17
19 18 18 18 18 18 18 17 17 17 17 17 17 17 17 17 17 17 17 17 17 17 17 16 17 17 17 17 17 17 17 17 17 17 17 17 17 17 17 17 17 17 17
18 18 18 18 18 18 18 17 17 17 17 17 16 16 16 16 16 16 16 16 16 16 16 16 16 16 16 16 16 16 16 17 17 17 17 17 17 17 17 17 17 17 17
18 18 18 18 18 17 17 17 17 17 17 16 16 16 16 16 16 16 16 15 15 15 15 15 16 16 16 16 16 16 16 16 16 17 17 17 17 17 17 17 17 17 17
18 18 18 18 17 17 17 17 17 17 16 16 16 16 15 15 15 15 15 15 15 15 15 15 15 15 15 15 16 16 16 16 16 16 16 16 17 17 16 16 16 17 17
17 18 17 17 17 17 17 17 17 16 16 16 15 15 15 15 14 14 14 14 14 14 14 15 15 15 15 15 15 15 15 15 16 16 16 16 16 16 16 16 16 16 16
17 17 17 17 17 17 17 17 16 16 16 15 15 15 14 14 14 14 14 14 14 14 14 14 14 14 14 15 15 15 15 15 15 15 16 16 16 16 16 16 16 16 16
17 17 17 17 17 17 17 17 16 16 16 15 15 14 14 14 14 14 14 14 14 14 14 14 14 14 14 14 14 14 15 15 15 15 15 15 16 16 16 16 16 16 16
17 17 17 17 17 17 17 17 16 16 15 15 15 14 14 14 13 13 13 13 13 13 13 13 13 14 14 14 14 14 14 14 14 14 15 15 15 15 15 15 15 16 16
17 17 17 17 17 17 17 17 16 16 15 15 15 14 14 14 13 13 13 13 13 13 13 13 13 13 13 13 14 14 14 14 14 14 14 14 15 15 15 15 15 15 15
17 17 17 17 17 17 17 17 16 16 16 15 15 14 14 14 13 13 13 13 13 13 13 13 13 13 13 13 13 13 13 13 14 14 14 14 14 14 14 15 15 15 15
17 17 17 17 17 17 17 17 16 16 15 15 15 14 14 14 13 13 13 12 12 12 12 12 13 13 13 13 13 13 13 13 13 13 14 14 14 14 14 14 14 14 15
18 18 17 17 18 17 17 17 16 16 16 15 15 15 14 14 14 13 13 13 12 12 12 12 12 12 12 12 12 12 12 12 12 12 13 13 14 14 14 14 14 14 14
Wind_Speed
7 11 17 18 19 19 20 20 19 19 19 18 18 17 16 15 14 13 13 12 11 11 10 10 10 10 10 10 10 9 9 8 9 10 11 12 13 15 16 17 17 16 19
11 15 19 18 19 19 19 19 19 18 18 17 16 16 15 14 13 12 12 11 11 10 10 10 10 10 10 10 10 9 9 9 10 11 12 13 14 15 16 17 16 16 18
12 14 18 18 18 19 18 18 18 17 17 16 15 14 13 12 11 11 10 10 10 10 10 9 10 10 10 10 9 9 9 10 11 11 12 11 13 15 16 16 17 18 18
12 14 16 18 18 18 18 17 17 16 16 15 14 13 12 11 10 10 9 9 8 8 8 9 9 9 9 9 8 8 8 9 11 12 10 10 11 14 15 16 17 17 17
10 13 17 19 18 18 17 17 16 15 15 14 13 12 11 10 9 9 8 8 7 7 7 7 8 8 8 8 7 8 8 8 10 10 9 9 11 15 16 16 16 16 16
8 12 17 19 18 17 17 16 16 15 14 13 12 11 10 9 9 8 7 7 6 6 6 6 6 6 6 6 6 7 7 9 10 9 9 9 12 15 16 16 16 16 15
8 11 16 19 18 17 16 16 15 14 13 12 11 10 9 8 8 7 7 7 6 5 5 5 5 5 5 5 6 6 7 10 10 9 8 8 11 15 15 15 16 16 15
9 9 14 18 18 17 16 16 15 14 13 12 11 9 8 7 7 6 5 6 6 5 5 4 3 4 3 3 4 5 7 8 8 8 7 7 11 14 15 15 15 15 15
7 8 9 13 15 16 16 15 14 13 12 11 10 8 7 6 6 6 6 6 6 5 5 4 4 3 2 2 2 3 5 7 7 6 7 7 10 13 14 15 15 15 15
6 6 7 10 11 12 13 13 13 12 11 9 8 7 6 5 4 4 5 5 6 6 6 5 5 4 3 2 1 2 4 6 5 5 5 7 10 12 14 14 15 15 14
8 5 5 7 9 10 10 11 11 10 9 8 6 5 4 2 1 1 3 5 5 5 6 6 6 4 3 2 1 1 3 3 4 3 5 8 10 12 13 14 14 15 15
10 7 5 6 7 8 8 8 8 7 7 7 5 5 5 4 2 1 1 2 3 4 3 4 4 4 3 1 1 1 2 3 3 3 5 8 11 12 13 14 15 15 15
9 8 6 6 6 6 6 7 7 8 7 7 6 6 6 6 5 4 4 3 2 1 0 0 0 1 1 1 1 0 1 2 3 3 5 8 11 13 14 15 15 16 15
9 8 6 6 6 6 7 7 7 7 7 6 6 6 6 5 4 4 4 4 4 3 2 2 1 1 1 1 1 0 0 1 3 3 5 7 11 12 14 15 16 16 16
8 7 7 6 6 6 7 6 7 7 7 7 8 7 7 5 3 4 4 5 5 4 3 2 2 2 1 1 1 0 0 1 2 3 4 5 8 12 14 14 16 16 16
7 7 6 7 6 7 5 5 6 7 8 8 7 7 8 7 5 4 3 4 4 4 4 4 3 2 2 2 1 1 1 1 1 2 3 4 5 10 12 13 15 15 16
8 7 7 7 7 7 7 6 7 8 8 7 6 7 8 7 6 5 4 3 4 5 5 5 4 4 3 2 2 2 2 1 1 2 3 3 4 6 10 12 14 15 16
7 7 7 8 8 8 6 6 7 8 7 6 6 6 7 7 7 6 4 3 5 5 5 4 3 3 3 3 2 2 2 2 2 2 3 4 4 5 8 12 14 14 15
7 8 7 8 8 8 6 6 6 7 6 5 5 5 5 6 7 7 5 4 6 6 4 3 3 2 2 2 1 2 2 2 2 2 2 3 4 5 6 9 11 13 15
6 6 7 8 7 7 6 5 4 4 3 3 3 3 5 5 6 7 5 5 6 4 4 4 4 4 2 2 2 2 3 3 3 3 3 2 2 4 5 6 8 10 14
6 6 7 8 7 7 5 4 4 3 2 1 1 2 3 4 5 6 4 5 4 4 3 3 2 4 4 3 2 3 3 4 4 5 5 4 5 3 2 3 5 6 8
9 8 7 8 8 7 5 4 3 3 2 2 1 1 2 3 4 4 4 3 3 4 4 4 3 2 3 4 2 2 2 3 4 5 5 6 6 6 5 3 1 3 5
10 11 10 9 8 7 6 5 4 4 3 2 1 1 2 3 3 4 4 4 3 3 3 3 3 3 2 3 3 2 2 1 2 3 4 5 6 6 6 6 6 4 2
12 10 8 8 7 6 7 6 6 5 4 5 3 3 2 3 3 4 4 4 3 2 2 2 2 2 3 2 2 3 2 1 1 1 3 3 5 6 6 5 6 7 5
10 9 8 7 7 6 7 7 6 4 4 3 2 3 2 2 3 4 5 5 4 2 2 2 2 2 2 2 1 1 2 2 2 1 1 4 4 3 4 4 5 6 8
8 8 8 8 7 7 7 7 7 7 6 5 4 4 3 2 2 4 6 5 4 3 3 3 2 3 2 2 1 1 1 1 1 1 0 1 3 3 3 3 4 5 7
Wind_Direction
157 156 152 145 137 132 128 125 122 120 119 119 120 122 124 125 126 126 125 123 121 117 111 107 105 102 99 97 94 92 93 97 103 111 117 122 125 125 124 122 121 121 121
146 154 154 148 142 137 133 130 128 126 125 125 126 126 128 129 129 127 125 123 122 117 112 109 107 104 101 98 94 90 91 99 106 113 117 121 125 125 125 125 124 125 124
140 151 154 151 145 140 136 133 132 131 130 130 129 129 130 131 130 129 127 124 122 118 115 113 111 107 104 99 93 89 92 100 106 110 111 115 123 127 128 129 128 127 126
137 146 153 152 147 143 139 137 136 135 134 134 134 134 134 135 135 133 131 128 125 122 119 116 114 111 106 99 90 83 86 99 109 110 109 117 129 132 131 130 130 129 128
131 143 154 152 149 146 143 141 139 138 138 139 139 140 141 142 142 140 139 136 132 127 124 120 116 112 107 98 86 77 79 102 117 115 112 116 128 135 133 133 132 130 129
127 143 154 152 150 148 145 142 142 142 144 145 145 147 149 149 150 150 152 148 143 140 135 128 123 117 109 97 84 72 76 104 112 118 118 124 133 138 138 137 135 133 133
131 141 152 151 149 148 147 146 146 147 148 149 150 153 156 158 159 160 163 162 158 155 149 143 136 128 117 101 86 71 78 107 115 121 126 135 143 144 142 140 139 138 137
134 137 149 151 149 149 149 150 150 150 152 154 156 158 162 165 169 173 177 179 179 177 176 172 161 148 137 113 92 75 77 105 121 128 134 145 151 148 147 145 143 143 141
128 127 134 145 149 151 151 150 151 153 154 156 158 160 165 171 178 186 193 199 200 200 203 204 203 191 180 154 113 91 88 105 123 136 145 154 160 155 154 153 150 149 148
121 118 122 130 138 143 148 152 152 152 154 155 158 161 166 171 183 199 210 218 218 218 221 222 222 219 219 214 167 118 102 107 124 138 151 167 170 167 163 160 159 156 155
143 128 126 125 128 134 142 150 149 150 150 149 149 153 143 128 138 226 229 226 227 228 230 231 231 231 231 240 254 183 119 124 142 156 174 181 181 180 175 170 167 166 165
160 155 141 134 134 136 141 128 122 119 118 113 104 99 95 94 81 82 286 241 235 230 234 237 237 236 231 228 287 346 133 165 177 191 202 197 194 192 187 181 176 174 173
160 161 153 141 138 134 124 119 109 103 101 97 96 99 93 79 64 57 54 38 29 4 54 20 259 214 183 192 226 243 177 180 199 205 216 213 206 202 197 192 187 182 180
160 163 154 144 136 133 125 118 112 107 103 97 97 101 96 80 63 51 50 43 46 52 60 49 42 69 102 170 202 254 239 183 201 210 227 227 217 209 205 199 195 192 189
163 162 156 147 142 135 123 122 117 115 113 108 100 93 95 89 73 62 55 50 47 57 69 71 74 74 67 45 37 274 296 204 210 219 237 246 224 212 209 205 202 201 198
167 161 152 144 138 133 125 121 123 124 119 108 100 96 93 91 84 73 61 54 46 53 73 83 81 82 68 54 29 27 43 23 259 258 260 269 237 215 210 210 207 206 206
167 155 151 143 136 132 129 130 130 130 124 114 108 102 97 93 89 87 75 58 47 63 80 82 76 70 63 53 34 23 36 23 284 274 274 271 260 236 221 219 215 212 214
155 150 154 148 138 133 131 129 132 134 127 121 115 106 100 95 97 90 78 61 59 74 80 81 68 67 54 46 29 6 8 358 329 296 273 261 256 252 242 233 227 224 224
161 153 148 136 139 135 127 123 127 130 126 125 120 112 105 101 99 92 81 68 72 72 65 77 62 68 55 27 6 19 7 5 346 336 313 280 261 253 247 245 240 235 231
150 145 140 136 135 127 116 105 97 99 102 112 120 124 118 109 103 94 81 68 71 72 64 68 72 57 51 10 15 26 16 17 28 30 13 352 304 267 252 248 248 245 240
144 152 157 152 150 142 135 132 129 136 138 137 156 151 137 124 114 99 90 72 68 74 72 79 86 60 35 8 46 21 5 20 42 36 29 36 29 8 306 261 256 252 251
166 174 175 174 168 165 150 140 137 133 141 154 142 159 179 158 142 119 108 96 85 86 71 62 76 82 35 24 70 78 26 5 6 18 24 35 31 35 38 31 345 271 256
181 187 187 187 177 168 143 118 99 83 74 86 154 215 219 194 172 141 132 120 106 100 94 77 80 99 88 34 39 110 124 174 324 341 9 23 23 32 29 29 27 2 303
189 187 186 184 178 169 156 154 152 159 174 199 194 201 216 205 191 173 160 149 135 122 115 99 88 91 106 70 36 43 74 135 110 350 340 358 10 25 18 23 23 22 20
184 184 184 181 183 175 170 170 163 166 177 169 167 192 212 230 216 198 184 172 160 153 145 124 111 104 103 113 90 73 73 63 67 105 333 338 348 353 360 5 15 23 25
185 183 180 183 193 183 176 175 178 177 172 168 183 196 211 223 233 215 196 188 182 176 174 167 153 139 136 128 128 122 129 123 116 119 165 313 320 318 332 345 9 13 17
Height
1529 1532 1535 1537 1539 1541 1543 1544 1546 1547 1548 1549 1549 1550 1551 1551 1552 1552 1553 1553 1554 1554 1555 1555 1555 1555 1555 1555 1555 1556 1556 1556 1556 1556 1557 1558 1558 1559 1560 1561 1562 1564 1565
1528 1532 1536 1538 1541 1543 1544 1546 1547 1548 1549 1550 1551 1552 1552 1553 1553 1554 1555 1555 1555 1556 1556 1556 1556 1557 1557 1557 1557 1557 1557 1558 1558 1558 1559 1559 1560 1561 1562 1563 1565 1566 1567
1529 1533 1536 1539 1542 1544 1546 1547 1549 1550 1551 1552 1553 1553 1554 1555 1555 1556 1556 1557 1557 1557 1558 1558 1558 1558 1559 1559 1559 1559 1559 1560 1560 1560 1561 1561 1562 1563 1565 1566 1567 1568 1570
1530 1534 1537 1540 1543 1545 1547 1548 1550 1551 1552 1553 1554 1555 1555 1556 1556 1557 1558 1558 1559 1559 1559 1559 1560 1560 1560 1561 1561 1561 1562 1562 1562 1562 1563 1564 1565 1566 1567 1568 1570 1571 1572
1531 1534 1538 1541 1543 1546 1548 1549 1551 1552 1553 1554 1555 1556 1556 1557 1558 1558 1559 1559 1560 1560 1561 1561 1561 1562 1562 1563 1563 1564 1564 1564 1564 1564 1565 1566 1567 1568 1569 1570 1572 1573 1574
1532 1535 1538 1541 1544 1546 1548 1550 1551 1553 1554 1555 1556 1557 1557 1558 1558 1559 1560 1560 1561 1562 1562 1563 1563 1564 1564 1564 1565 1565 1566 1566 1566 1567 1567 1568 1569 1570 1571 1572 1574 1575 1576
1533 1536 1539 1542 1544 1546 1548 1550 1552 1553 1554 1555 1556 1557 1558 1559 1559 1560 1561 1561 1562 1562 1563 1564 1564 1565 1565 1566 1567 1567 1568 1568 1568 1568 1569 1570 1571 1572 1573 1574 1575 1577 1578
1533 1537 1539 1542 1544 1547 1549 1550 1552 1553 1555 1556 1556 1557 1558 1559 1560 1560 1561 1562 1562 1563 1564 1564 1565 1566 1566 1567 1568 1568 1569 1570 1570 1570 1570 1571 1572 1573 1575 1576 1577 1578 1580
1535 1537 1540 1542 1545 1547 1549 1551 1552 1554 1555 1556 1557 1558 1558 1559 1560 1560 1561 1562 1563 1563 1564 1565 1566 1566 1567 1568 1568 1569 1570 1571 1571 1572 1572 1573 1573 1575 1576 1577 1578 1580 1581
1536 1538 1540 1543 1545 1547 1549 1551 1553 1554 1555 1556 1557 1558 1558 1559 1560 1560 1561 1562 1562 1563 1564 1565 1566 1566 1567 1568 1569 1569 1570 1571 1572 1573 1573 1574 1574 1576 1577 1578 1579 1581 1582
1535 1538 1541 1543 1545 1548 1550 1551 1553 1554 1555 1556 1557 1558 1558 1559 1559 1560 1560 1561 1562 1562 1563 1564 1565 1566 1567 1567 1568 1569 1570 1571 1572 1573 1574 1574 1575 1576 1577 1579 1580 1581 1583
1534 1538 1541 1543 1545 1548 1550 1551 1552 1554 1555 1556 1557 1558 1558 1559 1559 1559 1560 1560 1561 1561 1562 1563 1564 1565 1566 1567 1567 1568 1569 1570 1571 1573 1574 1575 1575 1576 1577 1579 1580 1582 1583
1533 1537 1540 1543 1545 1548 1550 1551 1552 1554 1555 1556 1557 1557 1557 1558 1558 1558 1558 1559 1559 1560 1561 1561 1562 1563 1565 1566 1566 1567 1568 1569 1570 1572 1573 1574 1575 1576 1577 1579 1580 1582 1583
1533 1537 1540 1543 1545 1548 1549 1551 1552 1554 1555 1556 1556 1557 1556 1556 1557 1557 1557 1557 1558 1558 1559 1560 1561 1562 1563 1564 1565 1566 1567 1568 1569 1570 1572 1573 1574 1575 1576 1578 1579 1581 1583
1534 1536 1539 1542 1545 1547 1549 1551 1552 1553 1555 1555 1556 1555 1555 1555 1555 1555 1555 1555 1556 1557 1557 1558 1559 1560 1561 1562 1563 1564 1565 1566 1567 1569 1570 1571 1572 1573 1575 1576 1578 1580 1582
1533 1536 1539 1541 1544 1547 1549 1551 1552 1554 1554 1555 1555 1554 1554 1554 1553 1553 1553 1554 1554 1555 1556 1557 1558 1559 1560 1561 1561 1562 1563 1565 1566 1567 1568 1569 1570 1572 1573 1575 1577 1578 1580
1532 1535 1538 1541 1544 1547 1549 1551 1552 1553 1554 1554 1554 1553 1552 1552 1552 1552 1552 1552 1553 1553 1554 1555 1556 1557 1558 1559 1560 1561 1562 1563 1564 1565 1566 1567 1568 1570 1571 1573 1575 1576 1578
1532 1534 1538 1540 1543 1546 1549 1550 1552 1553 1554 1554 1553 1553 1552 1552 1551 1551 1551 1551 1552 1553 1553 1554 1555 1556 1557 1558 1558 1559 1560 1561 1561 1562 1563 1564 1566 1567 1568 1570 1572 1574 1576
1531 1534 1537 1540 1543 1546 1548 1551 1552 1553 1553 1553 1553 1553 1552 1552 1551 1551 1551 1551 1551 1552 1553 1553 1554 1555 1556 1556 1557 1558 1558 1559 1559 1560 1561 1562 1563 1564 1565 1567 1569 1571 1573
1530 1534 1537 1540 1543 1546 1548 1550 1552 1552 1553 1553 1553 1553 1552 1552 1551 1550 1550 1550 1551 1551 1552 1552 1553 1553 1554 1555 1555 1556 1556 1557 1557 1557 1558 1559 1560 1561 1563 1564 1566 1568 1570
1529 1533 1537 1540 1542 1545 1548 1550 1551 1552 1553 1553 1553 1553 1553 1552 1551 1551 1550 1550 1551 1551 1551 1552 1552 1552 1553 1553 1554 1555 1555 1556 1556 1556 1556 1557 1558 1559 1560 1561 1563 1565 1567
1529 1533 1537 1539 1542 1545 1547 1549 1551 1552 1553 1553 1553 1553 1553 1553 1552 1551 1551 1550 1550 1551 1551 1551 1551 1551 1552 1552 1553 1553 1554 1556 1555 1555 1556 1556 1556 1557 1558 1559 1561 1562 1564
1528 1532 1536 1539 1542 1545 1547 1549 1550 1551 1552 1553 1553 1553 1553 1553 1552 1552 1552 1551 1551 1551 1551 1551 1551 1551 1551 1551 1552 1553 1553 1554 1555 1556 1555 1556 1556 1556 1557 1558 1559 1560 1561
1527 1532 1536 1539 1542 1544 1546 1548 1549 1550 1551 1552 1552 1552 1553 1552 1552 1552 1552 1552 1551 1551 1551 1550 1550 1550 1550 1550 1551 1551 1553 1553 1554 1555 1556 1555 1556 1556 1556 1557 1557 1558 1559
1527 1531 1535 1538 1541 1544 1545 1547 1548 1549 1550 1551 1551 1551 1551 1552 1552 1552 1552 1552 1552 1551 1551 1550 1550 1550 1550 1550 1550 1550 1551 1552 1552 1553 1554 1555 1555 1555 1555 1556 1556 1556 1557
1526 1530 1533 1537 1539 1542 1544 1546 1547 1548 1549 1549 1549 1550 1550 1550 1551 1551 1552 1552 1551 1551 1551 1550 1550 1550 1549 1549 1549 1550 1550 1550 1551 1551 1552 1552 1552 1553 1554 1554 1554 1554 1554